�������l�o���
Date,Time,MP-1(��Sv/h),MP-2(��Sv/h),MP-3(��Sv/h),MP-4(��Sv/h),MP-5(��Sv/h),MP-6(��Sv/h),MP-7(��Sv/h),MP-8(��Sv/h),����,����(m/s),���J
2022/07/26,00:00,0.597,0.851,0.539,1.015,0.725,0.343,0.591,0.559,�k�k��,1.5,��
2022/07/26,00:10,0.597,0.853,0.539,1.015,0.727,0.343,0.592,0.557,�k�k��,1.2,��
2022/07/26,00:20,0.596,0.853,0.539,1.016,0.724,0.343,0.591,0.557,�k,1.7,��
2022/07/26,00:30,0.597,0.851,0.538,1.013,0.724,0.342,0.591,0.557,�k�k��,1.5,��
2022/07/26,00:40,0.597,0.850,0.540,1.015,0.726,0.344,0.591,0.558,�k�k��,1.2,��
2022/07/26,00:50,0.597,0.851,0.539,1.015,0.724,0.342,0.589,0.558,�k,1.2,��
2022/07/26,01:00,0.595,0.850,0.538,1.015,0.725,0.343,0.591,0.558,�k,0.9,��
2022/07/26,01:10,0.598,0.848,0.539,1.013,0.724,0.344,0.591,0.558,�k,1.7,��
2022/07/26,01:20,0.596,0.849,0.538,1.017,0.726,0.341,0.591,0.557,�k,1.1,��
2022/07/26,01:30,0.594,0.852,0.540,1.016,0.725,0.342,0.590,0.558,�k,0.9,��
2022/07/26,01:40,0.598,0.852,0.538,1.014,0.725,0.343,0.592,0.557,�k,0.6,��
2022/07/26,01:50,0.596,0.851,0.538,1.012,0.727,0.343,0.592,0.558,-,CALM,��
2022/07/26,02:00,0.596,0.852,0.539,1.013,0.726,0.343,0.592,0.557,-,CALM,��
2022/07/26,02:10,0.596,0.851,0.539,1.013,0.726,0.342,0.591,0.558,-,CALM,��
2022/07/26,02:20,0.598,0.852,0.540,1.013,0.725,0.344,0.592,0.558,-,CALM,��
2022/07/26,02:30,0.597,0.848,0.539,1.015,0.726,0.344,0.592,0.558,-,CALM,��
2022/07/26,02:40,0.597,0.851,0.540,1.014,0.724,0.342,0.592,0.559,-,CALM,��
2022/07/26,02:50,0.596,0.847,0.538,1.016,0.726,0.343,0.592,0.559,�k�k��,1.1,��
2022/07/26,03:00,0.596,0.851,0.539,1.014,0.726,0.343,0.592,0.557,�k,1.4,��
2022/07/26,03:10,0.597,0.852,0.541,1.013,0.727,0.343,0.591,0.558,�k�k��,1.7,��
2022/07/26,03:20,0.595,0.851,0.540,1.014,0.725,0.343,0.592,0.559,�k,1.6,��
2022/07/26,03:30,0.597,0.851,0.540,1.013,0.726,0.342,0.592,0.559,�k�k��,1.4,��
2022/07/26,03:40,0.595,0.851,0.540,1.015,0.726,0.342,0.592,0.559,�k�k��,1.7,��
2022/07/26,03:50,0.596,0.851,0.539,1.016,0.725,0.343,0.590,0.557,�k�k��,1.5,��
2022/07/26,04:00,0.597,0.851,0.539,1.016,0.727,0.343,0.591,0.559,�k�k��,1.2,��
2022/07/26,04:10,0.596,0.850,0.539,1.015,0.725,0.343,0.590,0.557,�k��,1.1,��
2022/07/26,04:20,0.598,0.851,0.539,1.013,0.726,0.343,0.590,0.558,�k,1.1,��
2022/07/26,04:30,0.597,0.849,0.539,1.014,0.727,0.343,0.591,0.558,�k,1.1,��
2022/07/26,04:40,0.595,0.851,0.540,1.015,0.725,0.343,0.592,0.558,�k�k��,1.0,��
2022/07/26,04:50,0.597,0.851,0.539,1.013,0.726,0.343,0.591,0.559,�k��,1.1,��
2022/07/26,05:00,0.597,0.852,0.539,1.014,0.726,0.343,0.591,0.558,-,CALM,��
2022/07/26,05:10,0.598,0.851,0.539,1.015,0.728,0.344,0.591,0.561,-,CALM,��
2022/07/26,05:20,0.596,0.851,0.539,1.014,0.725,0.343,0.592,0.560,-,CALM,��
2022/07/26,05:30,0.597,0.849,0.539,1.017,0.727,0.343,0.592,0.559,-,CALM,��
2022/07/26,05:40,0.597,0.853,0.540,1.014,0.727,0.342,0.591,0.559,�k,0.8,��
2022/07/26,05:50,0.597,0.850,0.539,1.013,0.725,0.343,0.592,0.558,�k,0.9,��
2022/07/26,06:00,0.596,0.852,0.539,1.014,0.728,0.342,0.592,0.557,�k��,0.9,��
2022/07/26,06:10,0.596,0.851,0.538,1.013,0.726,0.344,0.591,0.558,�k�k��,0.6,��
2022/07/26,06:20,0.595,0.849,0.539,1.016,0.725,0.343,0.591,0.559,�k��,0.9,��
2022/07/26,06:30,0.596,0.851,0.539,1.014,0.723,0.343,0.592,0.558,�k�k��,1.4,��
2022/07/26,06:40,0.596,0.851,0.537,1.015,0.726,0.343,0.591,0.557,�k�k��,1.2,��
2022/07/26,06:50,0.594,0.849,0.539,1.013,0.725,0.342,0.590,0.557,�k�k��,1.7,��
2022/07/26,07:00,0.594,0.850,0.539,1.013,0.726,0.342,0.590,0.558,�k��,1.7,��
2022/07/26,07:10,0.595,0.848,0.537,1.014,0.725,0.344,0.591,0.557,�k�k��,2.0,��
2022/07/26,07:20,0.597,0.850,0.540,1.016,0.725,0.342,0.591,0.559,�k��,1.4,��
2022/07/26,07:30,0.597,0.851,0.538,1.014,0.726,0.342,0.591,0.559,�k��,1.5,��
2022/07/26,07:40,0.594,0.847,0.538,1.014,0.725,0.342,0.591,0.559,�k�k��,1.5,��
2022/07/26,07:50,0.596,0.851,0.536,1.010,0.724,0.343,0.592,0.558,�k�k��,1.7,��
2022/07/26,08:00,0.595,0.848,0.537,1.015,0.727,0.342,0.591,0.557,���k��,0.9,��
2022/07/26,08:10,0.596,0.847,0.537,1.013,0.722,0.340,0.592,0.557,���k��,1.4,��
2022/07/26,08:20,0.596,0.847,0.537,1.013,0.724,0.341,0.591,0.557,�k�k��,0.9,��
2022/07/26,08:30,0.595,0.845,0.539,1.012,0.724,0.341,0.593,0.557,��,0.6,��
2022/07/26,08:40,0.597,0.847,0.538,1.013,0.725,0.341,0.593,0.558,���k��,1.2,��
2022/07/26,08:50,0.597,0.847,0.538,1.015,0.726,0.343,0.592,0.558,�k�k��,1.1,��
2022/07/26,09:00,0.596,0.848,0.539,1.014,0.725,0.340,0.591,0.557,��,1.2,��
2022/07/26,09:10,0.596,0.847,0.539,1.012,0.723,0.342,0.591,0.558,���쓌,1.4,��
2022/07/26,09:20,0.594,0.844,0.538,1.011,0.724,0.342,0.592,0.558,��,0.9,��
2022/07/26,09:30,0.597,0.848,0.537,1.014,0.726,0.341,0.591,0.557,�k��,1.4,��
2022/07/26,09:40,0.596,0.848,0.536,1.011,0.724,0.341,0.592,0.557,�k�k��,1.2,��
2022/07/26,09:50,0.596,0.846,0.537,1.014,0.725,0.342,0.592,0.556,���k��,1.2,��
2022/07/26,10:00,0.598,0.846,0.538,1.014,0.724,0.343,0.593,0.557,�k��,1.2,��
2022/07/26,10:10,0.597,0.845,0.539,1.012,0.723,0.342,0.591,0.558,���k��,1.2,��
2022/07/26,10:20,0.595,0.844,0.537,1.013,0.727,0.342,0.590,0.558,�k�k��,1.4,��
2022/07/26,10:30,0.598,0.849,0.539,1.014,0.723,0.342,0.591,0.558,�k�k��,1.4,��
2022/07/26,10:40,0.599,0.850,0.539,1.011,0.725,0.343,0.592,0.557,�k,0.8,��
2022/07/26,10:50,0.599,0.848,0.537,1.012,0.726,0.341,0.591,0.558,�k�k��,1.4,��
2022/07/26,11:00,0.595,0.849,0.540,1.012,0.725,0.343,0.590,0.556,���k��,1.2,��
2022/07/26,11:10,0.596,0.848,0.539,1.014,0.725,0.341,0.592,0.557,���k��,0.6,��
2022/07/26,11:20,0.598,0.851,0.538,1.014,0.724,0.341,0.593,0.556,��,1.4,��
2022/07/26,11:30,0.597,0.849,0.541,1.015,0.725,0.343,0.592,0.554,�k��,1.9,�L
2022/07/26,11:40,0.598,0.849,0.539,1.016,0.725,0.343,0.592,0.556,���k��,1.7,��
2022/07/26,11:50,0.597,0.848,0.540,1.013,0.726,0.343,0.589,0.555,��,1.7,��
2022/07/26,12:00,0.598,0.849,0.541,1.013,0.725,0.341,0.592,0.554,�쓌,1.1,��
2022/07/26,12:10,0.598,0.851,0.539,1.014,0.725,0.342,0.591,0.555,��쓌,0.9,�L
2022/07/26,12:20,0.599,0.852,0.540,1.015,0.725,0.341,0.592,0.556,��,0.6,�L
2022/07/26,12:30,0.599,0.851,0.539,1.015,0.723,0.342,0.591,0.555,�쓌,0.9,��
2022/07/26,12:40,0.598,0.851,0.541,1.015,0.726,0.342,0.593,0.554,-,CALM,�L
2022/07/26,12:50,0.600,0.849,0.541,1.014,0.726,0.341,0.591,0.556,�k,1.2,�L
2022/07/26,13:00,0.599,0.850,0.541,1.014,0.725,0.343,0.592,0.555,�k,1.4,�L
2022/07/26,13:10,0.600,0.849,0.541,1.013,0.726,0.341,0.591,0.553,�k,1.9,�L
2022/07/26,13:20,0.599,0.848,0.541,1.014,0.726,0.343,0.591,0.554,�k,1.7,�L
2022/07/26,13:30,0.598,0.847,0.541,1.016,0.726,0.344,0.589,0.553,�k�k��,2.9,�L
2022/07/26,13:40,0.598,0.848,0.541,1.015,0.725,0.345,0.590,0.555,�k,2.3,�L
2022/07/26,13:50,0.599,0.847,0.540,1.013,0.726,0.345,0.591,0.554,�k,2.8,��
2022/07/26,14:00,0.597,0.845,0.541,1.014,0.723,0.345,0.590,0.554,�k��,1.2,��
2022/07/26,14:10,0.597,0.845,0.539,1.013,0.724,0.345,0.589,0.555,�k�k��,2.2,��
2022/07/26,14:20,0.598,0.846,0.542,1.014,0.724,0.345,0.591,0.555,�k��,2.0,��
2022/07/26,14:30,0.598,0.850,0.539,1.013,0.726,0.344,0.589,0.554,���k��,1.7,��
2022/07/26,14:40,0.600,0.846,0.538,1.013,0.723,0.342,0.590,0.554,���k��,1.2,��
2022/07/26,14:50,0.601,0.845,0.539,1.014,0.727,0.342,0.589,0.555,�k�k��,0.9,��
2022/07/26,15:00,0.599,0.850,0.541,1.017,0.725,0.342,0.589,0.553,�k�k��,1.2,��
2022/07/26,15:10,0.601,0.845,0.540,1.012,0.726,0.342,0.590,0.554,�k�k��,1.2,��
2022/07/26,15:20,0.599,0.846,0.540,1.014,0.726,0.342,0.590,0.554,�k,1.4,��
2022/07/26,15:30,0.599,0.848,0.541,1.013,0.723,0.342,0.590,0.554,�k�k��,0.9,��
2022/07/26,15:40,0.598,0.847,0.540,1.013,0.723,0.343,0.588,0.554,�k�k��,0.9,��
2022/07/26,15:50,0.599,0.849,0.540,1.013,0.726,0.343,0.589,0.555,��쓌,1.2,��
2022/07/26,16:00,0.599,0.848,0.540,1.013,0.727,0.342,0.588,0.554,-,CALM,��
2022/07/26,16:10,0.600,0.847,0.537,1.013,0.722,0.343,0.588,0.554,��쐼,0.6,�L
2022/07/26,16:20,0.598,0.850,0.540,1.012,0.722,0.343,0.588,0.554,-,CALM,�L
2022/07/26,16:30,0.600,0.851,0.538,1.012,0.723,0.343,0.588,0.553,�쐼,1.4,�L
2022/07/26,16:40,0.599,0.841,0.535,1.011,0.718,0.343,0.588,0.552,�쐼,4.2,�L
2022/07/26,16:50,0.600,0.841,0.534,1.009,0.716,0.344,0.587,0.551,���쐼,4.0,�L
2022/07/26,17:00,0.596,0.839,0.533,1.008,0.716,0.344,0.586,0.553,���쐼,5.4,�L
2022/07/26,17:10,0.597,0.837,0.534,1.008,0.714,0.345,0.587,0.553,��,6.8,�L
2022/07/26,17:20,0.595,0.837,0.535,1.007,0.716,0.344,0.587,0.554,���k��,6.5,�L
2022/07/26,17:30,0.596,0.838,0.534,1.008,0.715,0.343,0.586,0.553,���k��,4.3,��
2022/07/26,17:40,0.596,0.835,0.533,1.005,0.714,0.342,0.585,0.552,���k��,5.9,��
2022/07/26,17:50,0.595,0.834,0.534,1.005,0.715,0.342,0.585,0.552,���k��,8.3,��
2022/07/26,18:00,0.594,0.835,0.533,1.006,0.713,0.341,0.586,0.552,���k��,7.3,��
2022/07/26,18:10,0.593,0.834,0.531,1.004,0.714,0.341,0.587,0.553,�k��,8.3,��
2022/07/26,18:20,0.591,0.833,0.531,1.005,0.711,0.340,0.585,0.554,�k��,7.4,��
2022/07/26,18:30,0.593,0.833,0.530,1.005,0.714,0.339,0.585,0.552,���k��,6.1,��
2022/07/26,18:40,0.590,0.832,0.533,1.005,0.713,0.339,0.585,0.552,���k��,3.9,��
2022/07/26,18:50,0.592,0.835,0.531,1.005,0.711,0.339,0.584,0.552,��,4.0,��
2022/07/26,19:00,0.592,0.832,0.530,1.005,0.713,0.337,0.586,0.552,���쐼,3.1,��
2022/07/26,19:10,0.589,0.833,0.532,1.005,0.712,0.338,0.585,0.552,��쐼,3.1,��
2022/07/26,19:20,0.589,0.830,0.529,1.005,0.711,0.338,0.584,0.553,��쓌,3.4,��
2022/07/26,19:30,0.591,0.832,0.529,1.003,0.712,0.338,0.586,0.553,��쓌,3.3,��
2022/07/26,19:40,0.591,0.833,0.530,1.007,0.712,0.337,0.585,0.552,��쓌,3.1,��
2022/07/26,19:50,0.590,0.833,0.528,1.003,0.711,0.338,0.584,0.553,��,3.4,��
2022/07/26,20:00,0.591,0.833,0.531,1.006,0.712,0.338,0.584,0.553,��,3.0,��
2022/07/26,20:10,0.591,0.834,0.529,1.006,0.711,0.339,0.584,0.553,��,2.5,��
2022/07/26,20:20,0.590,0.833,0.530,1.004,0.714,0.339,0.583,0.552,��,2.0,��
2022/07/26,20:30,0.591,0.834,0.531,1.004,0.712,0.340,0.584,0.552,��쓌,2.3,��
2022/07/26,20:40,0.592,0.831,0.531,1.004,0.713,0.340,0.584,0.553,��쓌,1.2,��
2022/07/26,20:50,0.592,0.832,0.531,1.006,0.711,0.340,0.584,0.553,��쓌,1.7,��
2022/07/26,21:00,0.592,0.836,0.532,1.004,0.713,0.341,0.584,0.553,��쓌,1.5,��
2022/07/26,21:10,0.592,0.834,0.531,1.006,0.712,0.340,0.585,0.553,��,1.4,��
2022/07/26,21:20,0.592,0.834,0.532,1.005,0.712,0.342,0.585,0.554,��쐼,1.5,�L
2022/07/26,21:30,0.590,0.832,0.530,1.004,0.712,0.340,0.584,0.553,��,0.8,�L
2022/07/26,21:40,0.591,0.833,0.531,1.005,0.714,0.341,0.585,0.553,��,1.2,�L
2022/07/26,21:50,0.592,0.833,0.532,1.005,0.712,0.341,0.585,0.552,�쐼,1.2,��
2022/07/26,22:00,0.593,0.834,0.531,1.006,0.713,0.341,0.585,0.554,���k��,0.6,��
2022/07/26,22:10,0.592,0.834,0.530,1.005,0.714,0.341,0.585,0.554,�쐼,0.6,��
2022/07/26,22:20,0.592,0.831,0.531,1.005,0.712,0.339,0.586,0.554,-,CALM,��
2022/07/26,22:30,0.593,0.834,0.531,1.006,0.713,0.340,0.585,0.554,�k��,0.9,�L
2022/07/26,22:40,0.592,0.831,0.530,1.007,0.711,0.341,0.585,0.553,�k�k��,1.2,�L
2022/07/26,22:50,0.587,0.831,0.529,1.003,0.712,0.341,0.585,0.555,�k�k��,1.2,�L
2022/07/26,23:00,0.588,0.831,0.530,1.003,0.713,0.340,0.584,0.553,-,CALM,��
2022/07/26,23:10,0.590,0.829,0.530,1.003,0.710,0.341,0.585,0.553,-,CALM,��
2022/07/26,23:20,0.585,0.830,0.530,1.001,0.711,0.341,0.585,0.554,���k��,0.6,��
2022/07/26,23:30,0.588,0.829,0.529,1.003,0.712,0.339,0.583,0.553,���k��,1.2,�L
2022/07/26,23:40,0.583,0.821,0.526,0.998,0.704,0.340,0.584,0.553,���쓌,1.2,�L
2022/07/26,23:50,0.579,0.814,0.523,0.995,0.701,0.339,0.583,0.550,�k,0.8,�L
